1st Responders/1st Detectors/Storm Spotters Weather Summary for Breckinridge County, KY

Forecast Maps


Reg. NEXRAD Animation


National Fire Danger: Day 1 & 2 Map

Current NWS Watch/Warnings

SPC Convective Day 1 Outlook


Day 2 Outlook

(Click images to enlarge|Page will refresh every 5 minutes)
UK Ag. Weather Center Desktop Severe Weather Service[HERE]
Breckinridge County, KY Hazardous Weather Outlook Webcast
(9 AM to 9 PM Mon-Fri)
[Fast]
[Dial-up]


UKAWC 1st Detectors/1st Responders Precision Weather Forecast For BRECKINRIDGE County, Kentucky
(based on the NWS County Digital Forecast)

ISSUED AT 02:00 UTC ON TUESDAY JUN 19 2018
DAY MONDAY TUESDAY
CDT 3HR 10P 11P MIDN 1A 2A 3A 4A 5A 6A 7A 8A 9A 10A 11A NOON 1P 2P 3P 4P 5P 6P
MAX/MIN -- -- -- -- -- -- -- -- -- 72° -- -- -- -- -- -- -- -- -- -- 88°
TEMP 76° 74° 74° 74° 74° 74° 72° 72° 72° 74° 76° 79° 83° 83° 85° 86° 86° 86° 86° 85° 83°
SKY COVER 11% 11% 12% 12% 16% 19% 23% 26% 30% 33% 37% 40% 43% 47% 50% 53% 49% 44% 40% 35% 31%
Clouds
DEW PT 72° 70° 70° 70° 70° 70° 68° 68° 70° 70° 70° 70° 72° 72° 70° 70° 70° 70° 70° 70° 70°
RH 87% 87% 90% 87% 86% 86% 87% 87% 90% 90% 81% 73% 69% 67% 61% 59% 57% 57% 56% 58% 64%
POP 12HR -- -- -- -- -- -- -- -- -- 13% -- -- -- -- -- -- -- -- -- -- --
RAIN/SNOW (liq.equ) -- -- -- 0.00in -- -- -- -- -- 0.00in -- -- -- -- -- 0.00in -- -- -- -- --
SNOWFALL -- -- -- 0in -- -- -- -- -- 0in -- -- -- -- -- 0in -- -- -- -- --
WIND SPEED(MPH) 5 5 5 5 5 5 5 5 6 7 7 7 7 8 7 7 8 8 8 8 7
WIND Gust(MPH) 7 6 6 7 6 6 6 7 7 8 9 10 10 13 10 10 13 14 14 13 10
WIND DIR SW SW SW SW SW SW SW SW SW SW SW W W W W W W W W SW SW
DEW Lgt Dew Lgt Dew Lgt Dew Lgt Dew Lgt Dew Lgt Dew Lgt Dew Lgt Dew Lgt Dew Lgt Dew -- -- -- -- -- -- -- -- -- -- --
HeatIndex 76 74 74 74 74 74 72 72 72 74 76 83 88 89 91 92 92 92 92 90 88
Rain Showers -- -- -- -- -- -- -- -- -- -- -- -- -- Slight Chance Slight Chance Slight Chance Slight Chance Slight Chance Slight Chance Slight Chance --
Thunder Storm -- -- -- -- -- -- -- -- -- -- -- -- -- Slight Chance Slight Chance Slight Chance Slight Chance Slight Chance Slight Chance Slight Chance --
WIND CHILL -- -- -- -- -- -- -- -- -- -- -- -- -- -- -- -- -- -- -- -- --
SPRAY COND
DRY COND
LIVESTOCK HEATSTRESS 74.77 72.91 73.16 72.91 72.83 72.83 71.06 71.06 71.27 73.16 74.20 76.00 78.87 78.61 79.38 79.87 79.57 79.57 79.42 78.95 78.21



DAY WEDNESDAY THURSDAY FRIDAY SATURDAY SUNDAY MONDAY
CDT 6HR 7P 8P 9P 10P 11P MIDN 1A 2A 3A 4A 5A 6A 7A 8A 9A 10A 1P 4P 7P 10P 1A 4A 7A 10A 1P 4P 7P 1A 7A 1P 7P 1A 7A 1P 7P 1A 7A 1P 7P 1A 7A 1P 7P
MAX/MIN -- -- -- -- -- -- -- -- -- -- -- -- 72° -- -- -- -- 88° -- -- -- -- 70° -- -- 83° -- -- 68° 85° -- -- 67° 85° -- -- 68° 88° -- -- 70° 88° --
TEMP 83° 81° 79° 76° 76° 74° 74° 74° 72° 72° 72° 72° 74° 76° 79° 81° 88° 86° 81° 76° 72° 70° 72° 77° 81° 83° 79° 70° 70° 85° 77° 70° 70° 85° 81° 70° 72° 86° 81° 72° 72° 86° 83°
SKY COVER 26% 39% 38% 37% 38% 40% 40% 41% 42% 42% 46% 54% 57% 57% 57% 57% 58% 70% 64% 73% 74% 80% 87% 89% 90% 88% 88% 87% 85% 80% 79% 71% 63% 61% 55% 54% 66% 59% 56% 53% 47% 50% 59%
Clouds
DEW PT 70° 70° 70° 70° 70° 68° 68° 67° 67° 67° 67° 67° 68° 68° 70° 70° 70° 70° 72° 70° 70° 68° 68° 70° 72° 72° 70° 70° 70° 72° 70° 68° 67° 70° 70° 68° 70° 74° 72° 70° 70° 72° 72°
RH 66% 69% 73% 79% 82% 81% 81% 81% 81% 84% 84% 86% 84% 78% 74% 67% 56% 58% 71% 82% 90% 93% 90% 76% 71% 69% 76% 96% 96% 65% 78% 93% 93% 61% 69% 93% 93% 65% 73% 93% 93% 63% 69%
POP 12HR 24% -- -- -- -- -- -- -- -- -- -- -- 14% -- -- -- -- -- 45% -- -- -- 32% -- -- -- 65% -- 57% -- 68% -- 62% -- 28% -- 40% -- 49% -- 38% -- 35%
RAIN/SNOW (liq.equ) 0.00in -- -- -- -- -- 0.00in -- -- -- -- -- 0.00in -- -- -- 0.00in -- 0.03in -- 0.02in -- 0.01in -- 0.13in -- 0.16in -- -- -- -- -- -- -- -- -- -- -- -- -- -- -- --
SNOWFALL 0in -- -- -- -- -- 0in -- -- -- -- -- 0in -- -- -- 0in -- 0in -- 0in -- 0in -- 0in -- 0in -- -- -- -- -- -- -- -- -- -- -- -- -- -- -- --
WIND SPEED(MPH) 7 6 6 6 6 5 5 5 5 5 5 6 6 7 7 7 8 9 7 6 2 2 5 6 6 6 5 5 6 8 8 7 8 13 8 5 7 8 7 5 6 7 2
WIND DIR SW SW SW SW SW SW SW SW SW SW SW SW SW SW SW SW SW SW W SW SW SW SW SW S S S S S S S S SW SW SW SW S SW SW SW SW W S
HeatIndex 87 86 79 76 76 74 74 74 72 72 72 72 74 76 79 85 94 92 86 76 72 70 72 77 86 88 79 70 70 90 77 70 70 89 84 70 72 95 87 72 72 94 88
Rain Showers -- -- -- -- -- -- -- -- -- -- -- -- Slight Chance Slight Chance Slight Chance Slight Chance Chance Chance Chance Chance Slight Chance Slight Chance Likely Likely Likely Likely Chance Likely Chance Likely Likely Chance Slight Chance Chance -- Chance Chance Chance Chance Chance Chance Chance Slight Chance
Thunder Storm -- -- -- -- -- -- -- -- -- -- -- -- Slight Chance Slight Chance Slight Chance Slight Chance Chance Chance Chance Chance Slight Chance Slight Chance Likely Likely Likely Likely Chance Likely Chance Likely Likely Chance Slight Chance Chance -- Chance Chance Chance Chance Chance Chance Chance Slight Chance
WIND CHILL -- -- -- -- -- -- -- -- -- -- -- -- -- -- -- -- -- -- -- -- -- -- -- -- -- -- -- -- -- -- -- -- -- -- -- -- -- -- -- -- -- -- --
SPRAY COND
DRY COND
LIVESTOCK HEATSTRESS 78.47 77.21 76.00 74.01 74.30 72.41 72.41 72.41 70.62 70.84 70.84 70.98 72.66 73.92 76.11 76.97 80.93 79.72 77.46 74.30 71.27 69.57 71.27 74.60 77.46 78.87 76.33 69.75 69.75 79.96 74.80 69.57 69.57 79.38 77.21 69.57 71.49 80.76 77.70 71.49 71.49 80.46 78.87

Click on individual weather variable above in left-hand column (ie., TEMP, RH, QPF 12HR) to view state forecast maps






NWS 48 Hr. Forecast Maps,

Regional Hourly Observations For BRECKINRIDGE County, Kentucky
Issued at 1000 PM EDT MON JUN 18 2018
NORTH CENTRAL KENTUCKY
  
CITY           SKY/WX    TMP DP  RH WIND       PRES   REMARKS
LOUISVILLE/SDF FAIR      87  73  62 SW8       30.01R HX  94           
LOUISVILLE/LOU FAIR      86  74  67 SW9       30.01R HX  94           
FORT KNOX      FAIR      81  73  77 SW5       30.04R                  


Current NOWCAST not available:
Nowcasts are not issued routinely during fair weather. Only when
precipitation or other significant weather is occuring in this county will these
forecasts be issued. Currently, there is no short term forecast in effect.


Fire Weather Forecast For BRECKINRIDGE County, KY
Provided by the National Weather Service:

Issued at: Mon Jun 18 22:05:01 EDT 2018

337 AM EDT Mon Jun 18 2018 /237 AM CDT Mon Jun 18 2018/

                      Today        Tonight      Tue          

CLOUD COVER           MClear       PCldy        PCldy        
PRECIP TYPE           tstms        NONE         tstms        
CHANCE PRECIP (%)     30           0            0            
TEMP (24H TREND)      94 (+2)      71 (0)       91           
RH % (24H TREND)      44 (-1)      96 (0)       50           
20FTWND-VAL/AM(MPH)   Lgt/Var                   Lgt/Var      
20FTWND-RDG/PM(MPH)   Lgt/Var      Lgt/Var      W  6         
PRECIP AMOUNT         0.03         0.00         0.00         
MIXING HGT(FT-AGL/MSL)5352                      5906         
TRANSPORT WND (MPH)   W  8                      W 13         
VENT RATE (KT-FT)     48763                     72690        
DISPERSION            Fair                      Good         
DSI                   MOD UNSTBL   MOD UNSTBL   SLGT UNSTBL  
LAL                   3            2            2            
HAINES INDEX          3            3            3            
ADI EARLY             36 FAIR      6 VERY POOR  59 GEN GOOD  
ADI LATE              37 FAIR      2 VERY POOR  61 GOOD      
MAX LVORI EARLY       6            5            7            
MAX LVORI LATE        2            7            1            

REMARKS...ADI IS ATMOSPHERIC DISPERSION INDEX BY LAVDAS.        
LVORI IS LOW VISIBILITY OCCURRENCE RISK INDEX.

.WEDNESDAY...Mostly cloudy. A 50 percent chance of showers and
thunderstorms. Lows in the lower 70s. Highs in the upper 80s.
Southwest winds around 5 mph. 
.THURSDAY...Mostly cloudy with a 50 percent chance of showers and
thunderstorms. Lows in the lower 70s. Highs in the mid 80s. West
winds around 5 mph. 
.FRIDAY...Mostly cloudy with a 50 percent chance of showers and
thunderstorms. Lows in the upper 60s. Highs in the mid 80s.
Southwest winds up to 10 mph. 
.SATURDAY...Mostly cloudy. A 50 percent chance of showers and
thunderstorms. Lows in the upper 60s. Highs in the upper 80s.
Southwest winds 5 to 10 mph. 
.SUNDAY...Mostly cloudy. A 40 percent chance of showers and
thunderstorms. Lows around 70. Highs in the lower 90s. Southwest
winds 5 to 10 mph. 

SPC's Fire Weather Web Tool (Excellent!), SPC's Fire Weather Outlooks, NWS Fire Weather WEB, Fire Danger Class Map,
Keetch-Byram Drought Index, ROMAN Web, Haines Index ,
WFAS's 10-hr Dead Fuel Moist., WFAS's 100-hr Dead Fuel Moist., Probablity of Ignition, Visual blackness Map, Palmer Drought Index, HPC's Rainfall Forecast Maps


Hazardous Weather Outlook For BRECKINRIDGE County, Kentucky
335 PM EDT Mon Jun 18 2018 /235 PM CDT Mon Jun 18 2018/

 DAY ONE  This Afternoon and Tonight.

Isolated to scattered thunderstorms will be possible across the
outlook area this afternoon and evening. Locally heavy rainfall,
gusty winds, and frequent lightning will be the main threats.

In addition, heat index values will top out in the upper 90s to near
100 degrees. Take necessary precautions if planning to be outdoors
this afternoon. 

 DAYS TWO THROUGH SEVEN  Tuesday through Sunday.

Another hot and humid day is expected on Tuesday with afternoon heat
indices topping out in the upper 90s to near 100.

The latest weather forecasts suggests that the overall weather
pattern will become quite unsettled for the mid to late week period.
Thunderstorms will be possible each day from Wednesday through
Friday. Some strong storms will be possible during the period.
However, torrential rainfall, gusty winds, and frequent lightning
will be the main weather hazards.  

Training of storms will be possible Wednesday through Friday and this
may result in localized flood issues in some areas.

 SPOTTER INFORMATION STATEMENT  

Spotter activation may be required later this week as the weather
pattern becomes more active. 

Latest BRECKINRIDGE County, Kentucky Watches, Warnings and Advisories.
Additional Drought Info.: UKAWC Drought Page, Kentucky Drought Watch


7-Day Forecast For BRECKINRIDGE County, KY

TONIGHT
Mostly clear. A 20 percent chance of showers and thunderstorms in the evening. Lows in the lower 70s. Southwest winds up to 10 mph.

TUESDAY
Partly cloudy with a 30 percent chance of showers and thunderstorms. Highs in the upper 80s. West winds 5 to 10 mph.

TUESDAY NIGHT
Partly cloudy with a 20 percent chance of showers and thunderstorms. Lows in the lower 70s. Southwest winds around 5 mph.

WEDNESDAY
Partly cloudy with a 50 percent chance of showers and thunderstorms. Highs in the upper 80s. Southwest winds 5 to 10 mph.

WEDNESDAY NIGHT
Mostly cloudy with a 50 percent chance of showers and thunderstorms. Lows in the lower 70s. Southwest winds 5 to 10 mph.

THURSDAY
Showers and thunderstorms likely. Highs in the lower 80s. Chance of precipitation 70 percent.

THURSDAY NIGHT
Showers and thunderstorms likely. Lows in the upper 60s. Chance of precipitation 70 percent.

FRIDAY
Showers and thunderstorms likely. Highs in the mid 80s. Chance of precipitation 70 percent.

FRIDAY NIGHT
Showers and thunderstorms likely. Lows in the upper 60s. Chance of precipitation 70 percent.

SATURDAY
Partly cloudy with a 30 percent chance of showers and thunderstorms. Highs in the mid 80s.

SATURDAY NIGHT
Partly cloudy with a 50 percent chance of showers and thunderstorms. Lows in the upper 60s.

SUNDAY
Partly cloudy with a 50 percent chance of showers and thunderstorms. Highs in the upper 80s.

SUNDAY NIGHT
Partly cloudy with a 50 percent chance of showers and thunderstorms. Lows around 70.

MONDAY
Partly cloudy with a 40 percent chance of showers and thunderstorms. Highs in the upper 80s.

Ag Weather Center, Department of Biosystems & Agricultural Engineering, University of Kentucky